Regional Weather Roundup
Issued by NWS Albany, NY

Home | Current Version | Previous Version | Text Only | Print | Product List | Glossary On
Versions: 1 2 3 4 5 6 7 8 9 10 11 12 13 14 15 16 17 18 19 20 21 22 23 24 25 26 27 28 29 30 31 32 33 34 35 36 37 38 39 40 41 42 43 44 45 46 47 48 49 50
000
ASUS41 KALY 170010
RWRALY

NEW YORK STATE HOURLY WEATHER ROUNDUP
NATIONAL WEATHER SERVICE ALBANY NY
800 PM EDT TUE SEP 16 2014

NOTE: "FAIR" INDICATES FEW OR NO CLOUDS BELOW 12,000 FEET WITH NO
SIGNIFICANT WEATHER AND/OR NO OBSTRUCTIONS TO VISIBILITY.

NYZ032-033-038>043-046>054-057>066-NYZ062>081-170100-
EAST


CITY           SKY/WX    TMP DP  RH WIND       PRES   REMARKS
ALBANY         PTCLDY    58  47  66 W8        30.00R
GLENS FALLS    CLEAR     51  50  96 CALM      29.97R
POUGHKEEPSIE   MOCLDY    61  57  87 CALM      29.99R
NEWBURGH       MOCLDY    61  54  77 NW8       30.01R
MONTGOMERY     PTCLDY    57  51  80 S3        30.00R
WHITE PLAINS   PTCLDY    58  55  90 CALM      30.00R
ISLIP          MOCLDY    61  58  90 CALM      29.98R
NEW YORK CITY  CLOUDY    66  56  70 CALM      29.99R
CENTRAL PARK   MOCLDY    66  50  56 VRB3      30.02R
$$

NYZ005>009-017-018-044>046-055-056-170100-
CENTRAL


CITY           SKY/WX    TMP DP  RH WIND       PRES   REMARKS
FULTON         CLEAR     54  47  77 W3        30.03R
SYRACUSE       PTCLDY    57  45  64 W5        30.03R
ROME           CLEAR     52  48  86 CALM      30.04R
ELMIRA         CLEAR     51  48  89 NW3       30.04R
BINGHAMTON     CLEAR     55  45  68 NW5       30.04S
MONTICELLO     CLEAR     54  48  82 W6        30.04R
$$

NYZ026>034-041>043-170100-
NORTH


CITY           SKY/WX    TMP DP  RH WIND       PRES   REMARKS
WATERTOWN      MOCLDY    61  47  59 W10       29.99S
FORT DRUM      NOT AVBL
MASSENA        CLEAR     52  49  89 CALM      29.96R
SARANAC LAKE   PTCLDY    47  42  83 SW3       29.97R
PLATTSBURGH    CLEAR     52  49  89 W3        29.95R
$$

NYZ001>004-010>016-019>021-170100-
WEST


CITY           SKY/WX    TMP DP  RH WIND       PRES   REMARKS
NIAGARA FALLS  MOCLDY    57  45  64 W5        30.04S
BUFFALO        PTCLDY    59  47  64 W6        30.05S
DUNKIRK        PTCLDY    54  48  80 S6        30.07S
JAMESTOWN      CLEAR     52  39  62 W6        30.09S
WELLSVILLE     CLEAR     49  41  74 NW7       30.08S
ROCHESTER      PTCLDY    56  46  69 CALM      30.05R
PENN YAN       CLEAR     56  46  69 W3        30.05R
$$

             KEY
       WCI = WIND CHILL INDEX
       VSB = VISIBILITY
       HX  = HEAT INDEX
$$



USA.gov is the U.S. government's official web portal to all federal, state and local government web resources and services.